TimeEST,TemperatureF,Dew PointF,Humidity,Sea Level PressureIn,VisibilityMPH,Wind Direction,Wind SpeedMPH,Gust SpeedMPH,PrecipitationIn,Events,Conditions,WindDirDegrees,DateUTC
12:15 AM,33.8,33.8,100,29.95,3.0,NW,6.9,-,N/A,,Overcast,310,2013-03-01 05:15:00
12:35 AM,33.8,33.8,100,29.95,3.0,NW,4.6,-,N/A,,Overcast,320,2013-03-01 05:35:00
12:55 AM,33.8,33.8,100,29.95,4.0,NW,4.6,-,N/A,,Overcast,320,2013-03-01 05:55:00
1:15 AM,33.8,33.8,100,29.95,5.0,NW,3.5,-,N/A,,Overcast,320,2013-03-01 06:15:00
1:35 AM,33.8,33.8,100,29.95,5.0,NNW,5.8,-,N/A,,Overcast,330,2013-03-01 06:35:00
2:15 AM,33.8,33.8,100,29.94,5.0,NNW,4.6,-,N/A,,Overcast,330,2013-03-01 07:15:00
2:35 AM,33.8,33.8,100,29.93,7.0,NNW,4.6,-,N/A,,Overcast,330,2013-03-01 07:35:00
2:55 AM,33.8,33.8,100,29.93,7.0,NNW,3.5,-,N/A,,Overcast,330,2013-03-01 07:55:00
3:15 AM,33.8,33.8,100,29.93,7.0,NW,5.8,-,N/A,,Overcast,320,2013-03-01 08:15:00
3:35 AM,33.8,33.8,100,29.93,7.0,NW,3.5,-,N/A,,Overcast,320,2013-03-01 08:35:00
3:55 AM,33.8,33.8,100,29.93,4.0,NNW,3.5,-,N/A,,Light Drizzle,330,2013-03-01 08:55:00
4:15 AM,33.8,33.8,100,29.93,3.0,Calm,Calm,-,N/A,,Light Drizzle,0,2013-03-01 09:15:00
4:35 AM,33.8,33.8,100,29.93,2.5,Calm,Calm,-,N/A,,Drizzle,0,2013-03-01 09:35:00
4:55 AM,33.8,33.8,100,29.93,3.0,Calm,Calm,-,N/A,,Light Drizzle,0,2013-03-01 09:55:00
5:15 AM,33.8,33.8,100,29.94,3.0,Calm,Calm,-,N/A,,Light Drizzle,0,2013-03-01 10:15:00
5:35 AM,33.8,33.8,100,29.94,3.0,Calm,Calm,-,N/A,,Light Drizzle,0,2013-03-01 10:35:00
5:55 AM,33.8,33.8,100,29.95,3.0,Calm,Calm,-,N/A,,Overcast,0,2013-03-01 10:55:00
6:15 AM,33.8,33.8,100,29.95,5.0,Calm,Calm,-,N/A,,Overcast,0,2013-03-01 11:15:00
6:35 AM,33.8,33.8,100,29.95,4.0,North,3.5,-,N/A,,Overcast,350,2013-03-01 11:35:00
6:55 AM,33.8,33.8,100,29.95,4.0,NNW,3.5,-,N/A,,Overcast,340,2013-03-01 11:55:00
7:15 AM,33.8,33.8,100,29.95,5.0,North,3.5,-,N/A,,Overcast,350,2013-03-01 12:15:00
7:35 AM,33.8,33.8,100,29.95,5.0,Calm,Calm,-,N/A,,Overcast,0,2013-03-01 12:35:00
8:35 AM,33.8,33.8,100,29.97,2.5,NNW,4.6,-,N/A,,Overcast,340,2013-03-01 13:35:00
8:55 AM,33.8,33.8,100,29.98,3.0,NNW,3.5,-,N/A,,Overcast,330,2013-03-01 13:55:00
9:15 AM,33.8,33.8,100,29.98,2.5,NNW,3.5,-,N/A,Snow,Light Snow,340,2013-03-01 14:15:00
9:35 AM,33.8,32.0,93,29.98,2.5,NNW,5.8,-,N/A,Snow,Light Snow,340,2013-03-01 14:35:00
9:55 AM,33.8,33.8,100,29.98,2.0,NNW,3.5,-,N/A,,Overcast,340,2013-03-01 14:55:00
10:15 AM,33.8,33.8,100,29.98,2.0,NW,3.5,-,N/A,,Overcast,310,2013-03-01 15:15:00
10:35 AM,33.8,33.8,100,29.98,2.5,NNW,6.9,-,N/A,,Overcast,330,2013-03-01 15:35:00
11:15 AM,35.6,33.8,93,29.98,10.0,North,4.6,-,N/A,Rain,Light Rain,360,2013-03-01 16:15:00
11:35 AM,33.8,33.8,100,29.98,10.0,NNW,5.8,-,N/A,Rain,Light Rain,340,2013-03-01 16:35:00
11:55 AM,33.8,33.8,100,29.99,7.0,NNW,4.6,-,N/A,Rain,Light Rain,340,2013-03-01 16:55:00
12:15 PM,33.8,32.0,93,29.99,4.0,NNW,4.6,-,N/A,Rain,Light Rain,340,2013-03-01 17:15:00
12:35 PM,33.8,33.8,100,29.99,3.0,North,4.6,-,N/A,Rain,Light Rain,350,2013-03-01 17:35:00
12:55 PM,33.8,33.8,100,29.98,4.0,North,4.6,-,N/A,Rain,Light Rain,10,2013-03-01 17:55:00
1:15 PM,35.6,33.8,93,29.98,10.0,North,5.8,-,N/A,Rain,Light Rain,350,2013-03-01 18:15:00
1:35 PM,35.6,33.8,93,29.97,5.0,North,4.6,-,N/A,Rain,Light Rain,350,2013-03-01 18:35:00
2:15 PM,33.8,33.8,100,29.96,5.0,NNE,4.6,-,N/A,Rain,Light Rain,30,2013-03-01 19:15:00
2:35 PM,33.8,33.8,100,29.96,5.0,North,3.5,-,N/A,Rain,Light Rain,360,2013-03-01 19:35:00
2:55 PM,35.6,33.8,93,29.95,7.0,North,5.8,-,N/A,Rain,Light Rain,10,2013-03-01 19:55:00
3:15 PM,35.6,33.8,93,29.96,10.0,NNW,4.6,-,N/A,Rain,Light Rain,340,2013-03-01 20:15:00
3:35 PM,35.6,33.8,93,29.96,10.0,North,4.6,-,N/A,Rain,Light Rain,360,2013-03-01 20:35:00
3:55 PM,33.8,33.8,100,29.96,7.0,Calm,Calm,-,N/A,Rain,Light Rain,0,2013-03-01 20:55:00
4:15 PM,33.8,33.8,100,29.96,5.0,WNW,4.6,-,N/A,Rain,Rain,300,2013-03-01 21:15:00
4:35 PM,33.8,32.0,93,29.96,2.5,Calm,Calm,-,N/A,,Overcast,0,2013-03-01 21:35:00
4:55 PM,33.8,33.8,100,29.96,2.5,Calm,Calm,-,N/A,Snow,Light Snow,0,2013-03-01 21:55:00
5:15 PM,33.8,33.8,100,29.97,5.0,Calm,Calm,-,N/A,Rain,Light Rain,0,2013-03-01 22:15:00
5:35 PM,33.8,33.8,100,29.97,3.0,Calm,Calm,-,N/A,,Overcast,0,2013-03-01 22:35:00
5:55 PM,32.0,32.0,100,29.97,1.0,North,3.5,-,N/A,Snow,Light Snow,350,2013-03-01 22:55:00
6:15 PM,32.0,32.0,100,29.98,1.5,NNW,3.5,-,N/A,Snow,Light Snow,330,2013-03-01 23:15:00
6:35 PM,32.0,32.0,100,29.98,1.8,NW,3.5,-,N/A,Snow,Light Snow,320,2013-03-01 23:35:00
6:55 PM,32.0,32.0,100,29.99,4.0,NNW,3.5,-,N/A,Snow,Light Snow,330,2013-03-01 23:55:00
7:15 PM,32.0,32.0,100,29.99,3.0,Calm,Calm,-,N/A,Snow,Light Snow,0,2013-03-02 00:15:00
7:35 PM,32.0,32.0,100,29.99,2.5,Calm,Calm,-,N/A,Snow,Light Snow,0,2013-03-02 00:35:00
7:55 PM,32.0,32.0,100,29.99,4.0,NNE,3.5,-,N/A,Snow,Light Snow,30,2013-03-02 00:55:00
8:15 PM,32.0,32.0,100,29.99,3.0,Calm,Calm,-,N/A,Snow,Light Snow,0,2013-03-02 01:15:00
8:35 PM,32.0,32.0,100,29.99,3.0,Calm,Calm,-,N/A,Snow,Light Snow,0,2013-03-02 01:35:00
9:15 PM,32.0,32.0,100,30.00,5.0,ENE,5.8,-,N/A,Snow,Light Snow,60,2013-03-02 02:15:00
9:35 PM,32.0,32.0,100,30.00,7.0,NE,4.6,-,N/A,,Overcast,50,2013-03-02 02:35:00
9:55 PM,32.0,32.0,100,30.00,7.0,NE,6.9,-,N/A,,Overcast,50,2013-03-02 02:55:00
10:15 PM,32.0,32.0,100,30.00,10.0,ENE,6.9,-,N/A,,Overcast,60,2013-03-02 03:15:00
10:55 PM,32.0,32.0,100,30.00,7.0,NE,8.1,-,N/A,,Overcast,50,2013-03-02 03:55:00
11:15 PM,32.0,32.0,100,30.00,7.0,ENE,8.1,-,N/A,Snow,Light Snow,60,2013-03-02 04:15:00
11:35 PM,32.0,32.0,100,30.00,4.0,NE,6.9,-,N/A,Snow,Light Snow,40,2013-03-02 04:35:00
11:55 PM,32.0,30.2,93,30.00,5.0,NE,8.1,-,N/A,Snow,Light Snow,40,2013-03-02 04:55:00